Powrót do katalogu

CZ-4 DEB

AktywnySSO
NORAD 26199·DEBRIS·🇨🇳 China

Wystrzelony Oct 14, 1999 z Taiyuan Satellite Launch Center

Loading…

Następne Przeloty (najbliższe 24 godziny)

TLE

ŚwieżeSource: Space-Track

Epoka: Sep 14, 2026, 11:09 UTC

1 26199U 99057CM  26257.46496708  .00002514  00000-0  40995-3 0  9995
2 26199  98.3388 333.7671 0059676 326.6728  96.7271 14.70734952399190

Śledź CZ-4 DEB w czasie rzeczywistym z AllMySat

Download on the App Store